This is the latest recevied weather packets stored in our database for station/object N8BAP. If no packets are shown the sender has not sent any weather packets the latest 10 day(s).
| Time | Temp. | Humidity | Pressure | Rain* | Wind** | Luminosity | Snow |
|---|---|---|---|---|---|---|---|
| 1788443396 | 28.89° C | 71% | 1023 hPa | 0 mm | - | 317 W/m² | - |
| 1788443095 | 28.89° C | 73% | 1023.2 hPa | 0 mm | - | 304 W/m² | - |
| 1788442792 | 28.89° C | 74% | 1023.1 hPa | 0 mm | - | 293 W/m² | - |
| 1788442490 | 28.33° C | 73% | 1023.2 hPa | 0 mm | - | 285 W/m² | - |
| 1788442184 | 28.33° C | 74% | 1023 hPa | 0 mm | - | 269 W/m² | - |
| 1788441880 | 28.33° C | 74% | 1023.5 hPa | 0 mm | - | 260 W/m² | - |
| 1788441580 | 28.33° C | 74% | 1023.2 hPa | 0 mm | - | 252 W/m² | - |
| 1788441275 | 27.78° C | 74% | 1023.4 hPa | 0 mm | - | 242 W/m² | - |
| 1788440974 | 27.78° C | 73% | 1023.3 hPa | 0 mm | - | 229 W/m² | - |
| 1788440669 | 27.78° C | 74% | 1023.4 hPa | 0 mm | - | 204 W/m² | - |
| 1788440367 | 27.22° C | 76% | 1023.5 hPa | 0 mm | - | 173 W/m² | - |
| 1788440062 | 27.22° C | 76% | 1023.4 hPa | 0 mm | - | 176 W/m² | - |
| 1788439761 | 26.67° C | 76% | 1023.4 hPa | 0 mm | - | 148 W/m² | - |
| 1788439473 | 26.67° C | 77% | 1023.4 hPa | 0 mm | - | 124 W/m² | - |
| 1788439155 | 26.67° C | 77% | 1023.7 hPa | 0 mm | - | 62 W/m² | - |
| 1788438850 | 26.11° C | 78% | 1023.6 hPa | 0 mm | - | 57 W/m² | - |
| 1788438549 | 26.11° C | 78% | 1023.4 hPa | 0 mm | - | 55 W/m² | - |
| 1788438244 | 25.56° C | 79% | 1023.5 hPa | 0 mm | - | 52 W/m² | - |
| 1788437945 | 25.56° C | 80% | 1023.5 hPa | 0 mm | - | 49 W/m² | - |
| 1788437638 | 25° C | 81% | 1023.4 hPa | 0 mm | - | 46 W/m² | - |
| 1788437334 | 25° C | 82% | 1023.4 hPa | 0 mm | - | 44 W/m² | - |
| 1788437032 | 25° C | 82% | 1023.5 hPa | 0 mm | - | 42 W/m² | - |
| 1788436731 | 24.44° C | 82% | 1023.3 hPa | 0 mm | - | 39 W/m² | - |
| 1788436426 | 24.44° C | 82% | 1023.4 hPa | 0 mm | - | 36 W/m² | - |
| 1788436126 | 24.44° C | 83% | 1023.2 hPa | 0 mm | - | 34 W/m² | - |
* Rain latest hour (hover to see other rain measurements)
** Current wind speed in m/s (hover to see current wind gust speed)